AirNav   Air Wisconsin pilot careers
 
 304 users online  

33J Geneva Municipal Airport
Geneva, Alabama, USA

GOING TO GENEVA?


FAA INFORMATION EFFECTIVE 08 NOVEMBER 2018

Location

FAA Identifier: 33J
Lat/Long: 31-03-09.4500N / 085-52-08.2000W
31-03.157500N / 085-52.136667W
31.0526250 / -85.8689444
(estimated)
Elevation: 100.3 ft. / 31 m (estimated)
Variation: 04W (2015)
From city: 2 miles N of GENEVA, AL
Time zone: UTC -6 (UTC -5 during Daylight Saving Time)
Zip code: 36340

Airport Operations

Airport use: Open to the public
Activation date: 12/1957
Control tower: no
ARTCC: JACKSONVILLE CENTER
FSS: ANNISTON FLIGHT SERVICE STATION
NOTAMs facility: ANB (NOTAM-D service available)
Attendance: MON-SAT 0800-1700, ALL SUN 1200-1700
Wind indicator: lighted
Segmented circle: no
Lights: ACTVT MIRL RY 11/29, PAPI RY 11 AND RY 29 - CTAF.
Beacon: white-green (lighted land airport)
Operates sunset to sunrise.

Airport Communications

CTAF/UNICOM: 122.8
CAIRNS APPROACH: 133.75
CAIRNS DEPARTURE: 133.75
WX AWOS-3PT at EDN (15 nm N): 118.9 (334-347-3524)
  • APCH/DEP SERVICE PRVDD BY JACKSONVILLE ARTCC ON FREQS 134.3/322.55 (DOTHAN RCAG) WHEN CAIRNS APCH/DEP CLSD.

Nearby radio navigation aids

VOR radial/distance  VOR name  Freq  Var
EDNr176/(14.7)ENTERPRISE VOR116.6003W
OZRr212/14.9CAIRNS VOR/DME111.2003W
HEYr213/(22.3)HANCHEY VOR110.6003W
RRSr236/26.4WIREGRASS VORTAC111.6002E

 
NDB name  Hdg/Dist  Freq  Var  ID
RUCKR198/10.721203WOZ --- --..
BOLL WEEVIL164/18.235203WBVG -... ...- --.
LOWE202/19.626903WLOR .-.. --- .-.
HANCHEY213/22.322103WHYE .... -.-- .
JUDD121/30.826402WJUY .--- ..- -.--
SOYYA290/34.932902WSMY ... -- -.--

Airport Services

Fuel available: 100LL
Parking: tiedowns
Airframe service: MAJOR
Powerplant service: MAJOR
Bottled oxygen: NONE
Bulk oxygen: NONE

Runway Information

Runway 11/29

Dimensions: 3998 x 100 ft. / 1219 x 30 m
Surface: asphalt, in good condition
Weight bearing capacity: 
Single wheel: 16.0
Runway edge lights: medium intensity
Runway edge markings: MARKINGS FAIR DUE TO FADING
RUNWAY 11  RUNWAY 29
Latitude: 31-03.255833N31-03.059167N
Longitude: 085-52.502167W085-51.771000W
Elevation: 94.4 ft.95.8 ft.
Gradient: 0.2%0.2%
Traffic pattern: leftleft
Runway heading: 111 magnetic, 107 true291 magnetic, 287 true
Markings: nonprecision, in fair conditionnonprecision, in fair condition
Visual slope indicator: 4-light PAPI on left (3.50 degrees glide path)4-light PAPI on left (3.50 degrees glide path)
Touchdown point: yes, no lightsyes, no lights
Obstructions: 9 ft. tree, 245 ft. from runway, 16 ft. left of centerline, 5:1 slope to clear35 ft. pole, 1274 ft. from runway, 55 ft. right of centerline, 30:1 slope to clear

Airport Ownership and Management from official FAA records

Ownership: Publicly-owned
Owner: TOWN OF GENEVA
PO BOX 37
GENEVA, AL 36340
Phone 334-684-2485
Manager: TOWN OF GENEVA
304 EAST AIRPORT AVE
GENEVA, AL 36340
Phone 334-684-2485

Airport Operational Statistics

Aircraft based on the field: 25
Single engine airplanes: 25
    
Aircraft operations: avg 25/day *
90% transient general aviation
7% military
3% local general aviation
* for 12-month period ending 01 March 2018

Instrument Procedures

NOTE: All procedures below are presented as PDF files. If you need a reader for these files, you should download the free Adobe Reader.

NOT FOR NAVIGATION. Please procure official charts for flight.
FAA instrument procedures published for use from 8 November 2018 at 0901Z to 6 December 2018 at 0900Z.

 
IAPs - Instrument Approach Procedures
RNAV (GPS) RWY 11   download (172KB)
RNAV (GPS) RWY 29   download (171KB)
NOTE: Special Take-Off Minimums/Departure Procedures apply   download (394KB)

Other nearby airports with instrument procedures:

KEDN - Enterprise Municipal Airport (15 nm N)
KOZR - Cairns Army Airfield (Fort Rucker) (16 nm NE)
1J0 - Tri-County Airport (19 nm SE)
KLOR - Lowe Army Heliport (Fort Rucker) (19 nm N)
KHEY - Hanchey Army Heliport (Fort Rucker) (21 nm NE)
 
Loc | Ops | Rwys | IFR | FBO | Links
Com | Nav | Svcs | Stats | Notes


 
Area around 33J (Geneva Municipal Airport)
 
Road maps at: MapQuest Bing Google
 
Aerial photo
WARNING: Photo may not be current or correct
Aerial photo of 33J (Geneva Municipal Airport)
Do you have a better or more recent aerial photo of Geneva Municipal Airport that you would like to share? If so, please send us your photo.

 
Sectional chart

 
Airport distance calculator
Flying to Geneva Municipal Airport? Find the distance to fly.

From to 33J

Sunrise and sunset
Times for 19-Nov-2018
 Local
(UTC-6)
 Zulu
(UTC)
Morning civil twilight05:4911:49
Sunrise06:1512:15
Sunset16:4322:43
Evening civil twilight17:0923:09

Current date and time
Zulu (UTC)  19-Nov-2018 09:55:43
Local (UTC-6)  19-Nov-2018 03:55:43
 
METAR
KEDN 
15nm N 
190935Z AUTO 00000KT 7SM CLR 07/07 A3015 RMK AO2 T00650065
KOZR 
16nm NE 
190856Z AUTO 00000KT 10SM CLR 07/06 A3015 RMK AO2 SLP212 T00670061 53001
KLOR 
19nm N 
190858Z AUTO 00000KT 10SM CLR 05/05 A3015 RMK AO2 SLP193 T00480048 55000
KSXS 
19nm N 
190858Z AUTO 00000KT 10SM CLR 08/07 A3015 RMK AO2 SLP211 T00770067 55001
KHEY 
21nm NE 
190858Z AUTO 00000KT 10SM SCT260 06/06 A3015 RMK AO2 SLP212 T00590059 55000
K0J4 
23nm W 
190858Z AUTO 00000KT 10SM CLR 08/06 A3018 RMK AO2 SLP217 T00780061 55001 $
K54J 
24nm SW 
190155Z AUTO 00000KT 10SM CLR 11/08 A3018 RMK AO2 T01070077
KDHN 
27nm NE 
190853Z AUTO 33004KT 8SM CLR 07/06 A3018 RMK AO2 SLP218 T00720056 55002
TAF
KOZR 
16nm NE 
190800Z 1908/2014 VRB06KT 9999 SCT250 QNH3013INS BECMG 2005/2006 25006KT 9999 BKN070 QNH3010INS TX21/1920Z TN05/1908Z
NOTAMs
Click for the latest NOTAMs
NOTAMs are issued by the DoD/FAA and will open in a separate window not controlled by AirNav.

 

 
 

FBO, Fuel Providers, and Aircraft Ground Support

  
 Business Name 
 
 Contact 
 
 Services / Description 
 
Fuel Prices
 
Comments
  
Geneva Municipal Airport 334-684-3591
[web site]
Airport management, Aviation fuel

More info about Geneva Municipal Airport
Phillips 66
100LL
SS $3.95 
 Updated 24-Dec-2017
 
   write
SS=Self service
Update Fuel Prices
 

Would you like to see your business listed on this page?

 If your business provides an interesting product or service to pilots, flight crews, aircraft, or users of the Geneva Municipal Airport, you should consider listing it here.  To start the listing process, click on the button below
 
Add a business
 

Other Pages about Geneva Municipal Airport

Update a link
 
Copyright © AirNav, LLC. All rights reserved. Privacy Policy  Contact